Time,TemperatureF,DewpointF,PressureIn,WindDirection,WindDirectionDegrees,WindSpeedMPH,WindSpeedGustMPH,Humidity,HourlyPrecipIn,Conditions,Clouds,dailyrainin,SoftwareType,DateUTC
2013-02-11 00:00:00,41.8,31.7,29.66,WSW,253,14.9,25.2,67,0.00,,,0.00,VWS V13.01,2013-02-11 06:00:00,
2013-02-11 00:01:00,34.5,27.5,30.08,WNW,284,18.8,18.8,75,0.00,,,0.00,VWS V13.01,2013-02-11 06:01:00,
2013-02-11 00:02:00,34.5,27.6,30.08,WNW,290,17.9,18.3,76,0.00,,,0.00,VWS V13.01,2013-02-11 06:02:00,
2013-02-11 00:03:00,34.6,27.8,30.08,WNW,290,16.1,18.7,76,0.00,,,0.00,VWS V13.01,2013-02-11 06:03:00,
2013-02-11 00:04:00,34.4,27.7,30.08,WNW,294,14.2,18.1,76,0.00,,,0.00,VWS V13.01,2013-02-11 06:04:00,
2013-02-11 00:05:00,41.9,32.0,29.66,WSW,246,13.6,24.2,68,0.00,,,0.00,VWS V13.01,2013-02-11 06:05:00,
2013-02-11 00:06:00,34.1,27.3,30.08,WNW,290,15.0,17.5,76,0.00,,,0.00,VWS V13.01,2013-02-11 06:06:00,
2013-02-11 00:07:00,34.4,27.5,30.08,WNW,301,22.7,25.8,76,0.00,,,0.00,VWS V13.01,2013-02-11 06:07:00,
2013-02-11 00:08:00,34.3,27.3,30.08,WNW,285,24.9,25.1,75,0.00,,,0.00,VWS V13.01,2013-02-11 06:08:00,
2013-02-11 00:09:00,34.1,27.0,30.08,WNW,287,25.3,25.3,75,0.00,,,0.00,VWS V13.01,2013-02-11 06:09:00,
2013-02-11 00:10:00,41.9,31.9,29.66,WSW,253,15.6,19.8,67,0.00,,,0.00,VWS V13.01,2013-02-11 06:10:00,
2013-02-11 00:11:00,34.2,27.3,30.08,NW,318,15.8,25.2,76,0.00,,,0.00,VWS V13.01,2013-02-11 06:11:00,
2013-02-11 00:12:00,34.4,27.6,30.08,WNW,297,27.3,27.3,76,0.00,,,0.00,VWS V13.01,2013-02-11 06:12:00,
2013-02-11 00:13:00,34.2,27.2,30.08,WNW,302,16.7,22.4,75,0.00,,,0.00,VWS V13.01,2013-02-11 06:13:00,
2013-02-11 00:14:00,34.0,27.3,30.08,WNW,292,21.1,23.5,76,0.00,,,0.00,VWS V13.01,2013-02-11 06:14:00,
2013-02-11 00:15:00,41.9,31.5,29.66,WSW,253,13.1,26.2,66,0.00,,,0.00,VWS V13.01,2013-02-11 06:15:00,
2013-02-11 00:16:00,34.1,27.3,30.08,WNW,300,18.1,22.4,76,0.00,,,0.00,VWS V13.01,2013-02-11 06:16:00,
2013-02-11 00:17:00,34.0,27.4,30.08,WNW,288,20.1,20.3,76,0.00,,,0.00,VWS V13.01,2013-02-11 06:17:00,
2013-02-11 00:18:00,34.2,27.6,30.08,WNW,301,19.6,25.4,76,0.00,,,0.00,VWS V13.01,2013-02-11 06:18:00,
2013-02-11 00:19:00,34.0,27.2,30.08,WNW,295,19.8,27.1,76,0.00,,,0.00,VWS V13.01,2013-02-11 06:19:00,
2013-02-11 00:20:00,41.9,32.1,29.66,SSW,211,15.5,21.6,68,0.00,,,0.00,VWS V13.01,2013-02-11 06:20:00,
2013-02-11 00:21:00,33.9,27.1,30.08,WNW,298,22.2,22.4,76,0.00,,,0.00,VWS V13.01,2013-02-11 06:21:00,
2013-02-11 00:22:00,33.8,27.0,30.08,West,278,18.7,25.7,76,0.00,,,0.00,VWS V13.01,2013-02-11 06:22:00,
2013-02-11 00:23:00,33.9,27.2,30.08,WNW,302,21.7,24.4,76,0.00,,,0.00,VWS V13.01,2013-02-11 06:23:00,
2013-02-11 00:24:00,34.0,27.1,30.08,WNW,291,20.4,23.7,76,0.00,,,0.00,VWS V13.01,2013-02-11 06:24:00,
2013-02-11 00:25:00,41.7,32.2,29.67,WSW,249,19.7,29.9,69,0.00,,,0.00,VWS V13.01,2013-02-11 06:25:00,
2013-02-11 00:26:00,33.7,27.0,30.08,WNW,297,23.3,25.9,76,0.00,,,0.00,VWS V13.01,2013-02-11 06:26:00,
2013-02-11 00:27:00,33.9,27.2,30.08,West,271,11.9,22.0,76,0.00,,,0.00,VWS V13.01,2013-02-11 06:27:00,
2013-02-11 00:28:00,33.9,27.2,30.08,WNW,284,20.5,25.1,76,0.00,,,0.00,VWS V13.01,2013-02-11 06:28:00,
2013-02-11 00:29:00,33.6,26.9,30.08,WNW,287,14.9,21.8,76,0.00,,,0.00,VWS V13.01,2013-02-11 06:29:00,
2013-02-11 00:30:00,41.5,32.5,29.67,West,259,25.5,26.5,70,0.00,,,0.00,VWS V13.01,2013-02-11 06:30:00,
2013-02-11 00:31:00,33.8,27.5,30.08,West,263,13.6,17.5,77,0.00,,,0.00,VWS V13.01,2013-02-11 06:31:00,
2013-02-11 00:32:00,33.9,27.6,30.08,WNW,300,11.6,19.1,78,0.00,,,0.00,VWS V13.01,2013-02-11 06:32:00,
2013-02-11 00:33:00,33.6,27.4,30.08,WNW,287,13.6,17.9,78,0.00,,,0.00,VWS V13.01,2013-02-11 06:33:00,
2013-02-11 00:34:00,33.5,27.3,30.08,WNW,287,19.1,20.3,78,0.00,,,0.00,VWS V13.01,2013-02-11 06:34:00,
2013-02-11 00:35:00,41.3,33.2,29.67,West,267,25.3,25.4,73,0.00,,,0.00,VWS V13.01,2013-02-11 06:35:00,
2013-02-11 00:36:00,33.8,27.6,30.08,WNW,283,15.9,16.7,78,0.00,,,0.00,VWS V13.01,2013-02-11 06:36:00,
2013-02-11 00:37:00,33.5,27.4,30.08,WNW,294,16.2,20.6,78,0.00,,,0.00,VWS V13.01,2013-02-11 06:37:00,
2013-02-11 00:38:00,33.6,27.5,30.08,WNW,298,15.0,19.4,78,0.00,,,0.00,VWS V13.01,2013-02-11 06:38:00,
2013-02-11 00:39:00,33.5,27.5,30.08,WNW,291,16.3,19.6,78,0.00,,,0.00,VWS V13.01,2013-02-11 06:39:00,
2013-02-11 00:40:00,41.5,33.5,29.67,West,280,14.9,18.6,73,0.00,,,0.00,VWS V13.01,2013-02-11 06:40:00,
2013-02-11 00:41:00,33.3,27.5,30.08,WNW,292,12.8,15.3,79,0.00,,,0.00,VWS V13.01,2013-02-11 06:41:00,
2013-02-11 00:42:00,33.4,27.5,30.09,WNW,290,15.0,15.5,79,0.00,,,0.00,VWS V13.01,2013-02-11 06:42:00,
2013-02-11 00:43:00,33.4,27.6,30.08,WNW,297,13.8,16.6,79,0.00,,,0.00,VWS V13.01,2013-02-11 06:43:00,
2013-02-11 00:44:00,33.4,27.6,30.09,WNW,292,10.8,13.4,79,0.00,,,0.00,VWS V13.01,2013-02-11 06:44:00,
2013-02-11 00:45:00,41.1,32.4,29.67,West,270,29.0,39.4,71,0.00,,,0.00,VWS V13.01,2013-02-11 06:45:00,
2013-02-11 00:46:00,33.5,27.9,30.08,WNW,294,10.5,12.3,80,0.00,,,0.00,VWS V13.01,2013-02-11 06:46:00,
2013-02-11 00:47:00,33.3,27.8,30.08,NW,304,11.3,11.4,80,0.00,,,0.00,VWS V13.01,2013-02-11 06:47:00,
2013-02-11 00:48:00,33.3,27.8,30.09,NW,308,9.3,11.3,80,0.00,,,0.00,VWS V13.01,2013-02-11 06:48:00,
2013-02-11 00:49:00,33.4,27.9,30.08,NW,312,10.7,12.8,80,0.00,,,0.00,VWS V13.01,2013-02-11 06:49:00,
2013-02-11 00:50:00,40.6,32.6,29.68,West,280,21.9,26.2,73,0.00,,,0.00,VWS V13.01,2013-02-11 06:50:00,
2013-02-11 00:51:00,33.4,27.8,30.09,NW,305,11.4,13.5,80,0.00,,,0.00,VWS V13.01,2013-02-11 06:51:00,
2013-02-11 00:52:00,33.0,27.5,30.08,NW,319,10.3,13.2,80,0.00,,,0.00,VWS V13.01,2013-02-11 06:52:00,
2013-02-11 00:53:00,33.0,27.5,30.08,NW,311,9.4,9.7,80,0.00,,,0.00,VWS V13.01,2013-02-11 06:53:00,
2013-02-11 00:54:00,33.1,27.6,30.09,NW,308,10.7,11.8,80,0.00,,,0.00,VWS V13.01,2013-02-11 06:54:00,
2013-02-11 00:55:00,40.4,31.6,29.68,WSW,243,24.5,32.8,71,0.00,,,0.00,VWS V13.01,2013-02-11 06:55:00,
2013-02-11 00:56:00,32.7,27.1,30.09,NW,305,11.5,15.5,80,0.00,,,0.00,VWS V13.01,2013-02-11 06:56:00,
2013-02-11 00:57:00,32.9,27.4,30.09,NW,305,10.9,13.9,80,0.00,,,0.00,VWS V13.01,2013-02-11 06:57:00,
2013-02-11 00:58:00,32.9,27.5,30.09,NW,311,12.2,13.9,80,0.00,,,0.00,VWS V13.01,2013-02-11 06:58:00,
2013-02-11 00:59:00,32.9,27.5,30.09,NW,309,12.4,12.7,80,0.00,,,0.00,VWS V13.01,2013-02-11 06:59:00,
2013-02-11 01:00:00,39.9,31.4,29.68,West,264,28.6,38.4,71,0.00,,,0.00,VWS V13.01,2013-02-11 07:00:00,
2013-02-11 01:01:00,32.8,27.4,30.09,NW,305,11.3,12.0,80,0.00,,,0.00,VWS V13.01,2013-02-11 07:01:00,
2013-02-11 01:02:00,33.0,27.6,30.09,WNW,297,12.3,13.0,80,0.00,,,0.00,VWS V13.01,2013-02-11 07:02:00,
2013-02-11 01:03:00,32.8,27.5,30.09,WNW,295,10.4,10.7,80,0.00,,,0.00,VWS V13.01,2013-02-11 07:03:00,
2013-02-11 01:04:00,32.6,27.3,30.09,NW,305,10.1,11.2,80,0.00,,,0.00,VWS V13.01,2013-02-11 07:04:00,
2013-02-11 01:05:00,39.5,31.0,29.68,West,259,18.5,31.5,71,0.00,,,0.00,VWS V13.01,2013-02-11 07:05:00,
2013-02-11 01:06:00,32.5,27.3,30.09,NW,312,10.9,13.8,81,0.00,,,0.00,VWS V13.01,2013-02-11 07:06:00,
2013-02-11 01:07:00,32.6,27.5,30.09,NW,321,12.7,18.0,81,0.00,,,0.00,VWS V13.01,2013-02-11 07:07:00,
2013-02-11 01:08:00,32.4,27.3,30.09,NW,314,14.1,16.7,81,0.00,,,0.00,VWS V13.01,2013-02-11 07:08:00,
2013-02-11 01:09:00,32.5,27.3,30.09,NW,318,13.9,16.2,81,0.00,,,0.00,VWS V13.01,2013-02-11 07:09:00,
2013-02-11 01:10:00,39.5,31.4,29.69,West,264,28.1,31.0,73,0.00,,,0.00,VWS V13.01,2013-02-11 07:10:00,
2013-02-11 01:11:00,32.4,27.2,30.09,WNW,302,12.3,13.5,81,0.00,,,0.00,VWS V13.01,2013-02-11 07:11:00,
2013-02-11 01:12:00,32.2,27.1,30.09,NW,312,12.2,13.5,81,0.00,,,0.00,VWS V13.01,2013-02-11 07:12:00,
2013-02-11 01:13:00,32.3,27.3,30.09,NW,315,11.0,15.9,82,0.00,,,0.00,VWS V13.01,2013-02-11 07:13:00,
2013-02-11 01:14:00,32.5,27.5,30.09,WNW,291,15.5,16.5,82,0.00,,,0.00,VWS V13.01,2013-02-11 07:14:00,
2013-02-11 01:15:00,39.0,30.8,29.69,WSW,250,29.1,35.5,72,0.00,,,0.00,VWS V13.01,2013-02-11 07:15:00,
2013-02-11 01:16:00,32.3,27.3,30.09,NW,305,12.1,16.2,82,0.00,,,0.00,VWS V13.01,2013-02-11 07:16:00,
2013-02-11 01:17:00,32.3,27.4,30.09,NW,304,15.1,15.1,82,0.00,,,0.00,VWS V13.01,2013-02-11 07:17:00,
2013-02-11 01:18:00,32.4,27.7,30.09,NW,305,14.7,17.0,83,0.00,,,0.00,VWS V13.01,2013-02-11 07:18:00,
2013-02-11 01:19:00,32.1,27.3,30.09,WNW,291,17.5,22.3,82,0.00,,,0.00,VWS V13.01,2013-02-11 07:19:00,
2013-02-11 01:20:00,38.8,31.0,29.69,West,262,24.2,28.5,73,0.00,,,0.00,VWS V13.01,2013-02-11 07:20:00,
2013-02-11 01:21:00,32.4,27.5,30.09,NW,304,17.5,20.7,82,0.00,,,0.00,VWS V13.01,2013-02-11 07:21:00,
2013-02-11 01:22:00,32.2,27.2,30.09,WNW,301,15.1,19.3,82,0.00,,,0.00,VWS V13.01,2013-02-11 07:22:00,
2013-02-11 01:23:00,32.1,27.3,30.09,WNW,292,17.0,18.7,82,0.00,,,0.00,VWS V13.01,2013-02-11 07:23:00,
2013-02-11 01:24:00,32.3,27.5,30.09,WNW,297,16.5,20.3,82,0.00,,,0.00,VWS V13.01,2013-02-11 07:24:00,
2013-02-11 01:25:00,38.9,31.3,29.69,WSW,255,16.8,26.5,74,0.00,,,0.00,VWS V13.01,2013-02-11 07:25:00,
2013-02-11 01:26:00,32.2,27.4,30.09,WNW,298,18.1,18.3,82,0.00,,,0.00,VWS V13.01,2013-02-11 07:26:00,
2013-02-11 01:27:00,32.1,27.4,30.09,WNW,295,17.4,21.5,82,0.00,,,0.00,VWS V13.01,2013-02-11 07:27:00,
2013-02-11 01:28:00,31.9,27.1,30.09,NW,307,18.6,22.1,82,0.00,,,0.00,VWS V13.01,2013-02-11 07:28:00,
2013-02-11 01:29:00,32.0,27.2,30.09,WNW,294,18.0,19.3,82,0.00,,,0.00,VWS V13.01,2013-02-11 07:29:00,
2013-02-11 01:30:00,38.5,31.2,29.69,West,273,28.6,29.5,75,0.00,,,0.00,VWS V13.01,2013-02-11 07:30:00,
2013-02-11 01:31:00,32.0,27.3,30.09,NW,305,19.1,19.7,83,0.00,,,0.00,VWS V13.01,2013-02-11 07:31:00,
2013-02-11 01:32:00,31.9,27.1,30.09,WNW,297,19.9,19.9,82,0.00,,,0.00,VWS V13.01,2013-02-11 07:32:00,
2013-02-11 01:33:00,31.9,27.2,30.09,WNW,297,17.1,18.5,83,0.00,,,0.00,VWS V13.01,2013-02-11 07:33:00,
2013-02-11 01:34:00,31.9,27.2,30.09,WNW,292,21.3,21.3,82,0.00,,,0.00,VWS V13.01,2013-02-11 07:34:00,
2013-02-11 01:35:00,38.7,31.5,29.69,West,266,26.4,28.3,75,0.00,,,0.00,VWS V13.01,2013-02-11 07:35:00,
2013-02-11 01:36:00,31.9,27.2,30.09,WNW,301,19.4,19.4,82,0.00,,,0.00,VWS V13.01,2013-02-11 07:36:00,
2013-02-11 01:37:00,31.9,27.2,30.09,WNW,291,15.2,20.1,83,0.00,,,0.00,VWS V13.01,2013-02-11 07:37:00,
2013-02-11 01:38:00,31.9,27.2,30.09,WNW,294,14.2,16.1,83,0.00,,,0.00,VWS V13.01,2013-02-11 07:38:00,
2013-02-11 01:39:00,31.8,27.3,30.10,WNW,294,17.0,19.5,83,0.00,,,0.00,VWS V13.01,2013-02-11 07:39:00,
2013-02-11 01:40:00,38.4,30.9,29.69,West,263,23.5,34.7,74,0.00,,,0.00,VWS V13.01,2013-02-11 07:40:00,
2013-02-11 01:41:00,31.8,27.3,30.09,WNW,297,15.0,17.5,83,0.00,,,0.00,VWS V13.01,2013-02-11 07:41:00,
2013-02-11 01:42:00,31.7,27.3,30.09,NW,305,13.9,15.1,84,0.00,,,0.00,VWS V13.01,2013-02-11 07:42:00,
2013-02-11 01:43:00,31.9,27.6,30.10,West,280,18.4,19.4,84,0.00,,,0.00,VWS V13.01,2013-02-11 07:43:00,
2013-02-11 01:44:00,31.9,27.6,30.10,NW,311,12.2,17.1,84,0.00,,,0.00,VWS V13.01,2013-02-11 07:44:00,
2013-02-11 01:45:00,38.5,29.5,29.70,West,259,18.5,37.0,70,0.00,,,0.00,VWS V13.01,2013-02-11 07:45:00,
2013-02-11 01:46:00,32.0,27.7,30.09,WNW,295,13.9,15.8,84,0.00,,,0.00,VWS V13.01,2013-02-11 07:46:00,
2013-02-11 01:47:00,31.7,27.5,30.10,WNW,290,18.3,21.1,84,0.00,,,0.00,VWS V13.01,2013-02-11 07:47:00,
2013-02-11 01:48:00,31.8,27.4,30.10,WNW,291,14.0,17.2,84,0.00,,,0.00,VWS V13.01,2013-02-11 07:48:00,
2013-02-11 01:49:00,31.8,27.4,30.10,NW,308,15.0,19.7,84,0.00,,,0.00,VWS V13.01,2013-02-11 07:49:00,
2013-02-11 01:50:00,38.3,30.0,29.70,West,267,23.7,31.8,72,0.00,,,0.00,VWS V13.01,2013-02-11 07:50:00,
2013-02-11 01:51:00,31.5,26.9,30.10,WNW,291,16.2,20.4,83,0.00,,,0.00,VWS V13.01,2013-02-11 07:51:00,
2013-02-11 01:52:00,32.0,27.5,30.10,West,264,15.8,17.8,83,0.00,,,0.00,VWS V13.01,2013-02-11 07:52:00,
2013-02-11 01:53:00,31.7,27.2,30.10,NW,304,13.7,18.9,83,0.00,,,0.00,VWS V13.01,2013-02-11 07:53:00,
2013-02-11 01:54:00,31.7,27.2,30.10,WNW,298,15.3,16.4,83,0.00,,,0.00,VWS V13.01,2013-02-11 07:54:00,
2013-02-11 01:55:00,38.2,29.9,29.71,West,264,27.8,30.0,72,0.00,,,0.00,VWS V13.01,2013-02-11 07:55:00,
2013-02-11 01:56:00,31.7,27.1,30.10,WNW,294,15.4,19.3,83,0.00,,,0.00,VWS V13.01,2013-02-11 07:56:00,
2013-02-11 01:57:00,31.5,26.9,30.10,WNW,294,19.7,21.4,83,0.00,,,0.00,VWS V13.01,2013-02-11 07:57:00,
2013-02-11 01:58:00,31.6,27.0,30.10,WNW,300,13.5,16.6,83,0.00,,,0.00,VWS V13.01,2013-02-11 07:58:00,
2013-02-11 01:59:00,31.6,27.0,30.10,NW,309,12.3,16.5,83,0.00,,,0.00,VWS V13.01,2013-02-11 07:59:00,
2013-02-11 02:00:00,38.0,29.5,29.71,West,260,23.4,35.8,71,0.00,,,0.00,VWS V13.01,2013-02-11 08:00:00,
2013-02-11 02:01:00,31.7,27.2,30.10,WNW,284,12.9,17.6,83,0.00,,,0.00,VWS V13.01,2013-02-11 08:01:00,
2013-02-11 02:02:00,31.5,27.0,30.10,NW,305,13.6,16.2,83,0.00,,,0.00,VWS V13.01,2013-02-11 08:02:00,
2013-02-11 02:03:00,31.8,27.3,30.10,WNW,301,14.5,14.7,83,0.00,,,0.00,VWS V13.01,2013-02-11 08:03:00,
2013-02-11 02:04:00,31.7,27.2,30.10,WNW,297,14.5,15.7,83,0.00,,,0.00,VWS V13.01,2013-02-11 08:04:00,
2013-02-11 02:05:00,38.1,29.9,29.71,WSW,246,19.1,30.4,72,0.00,,,0.00,VWS V13.01,2013-02-11 08:05:00,
2013-02-11 02:06:00,31.5,27.0,30.10,WNW,295,13.8,16.5,83,0.00,,,0.00,VWS V13.01,2013-02-11 08:06:00,
2013-02-11 02:07:00,31.6,27.2,30.10,WNW,300,15.9,17.5,83,0.00,,,0.00,VWS V13.01,2013-02-11 08:07:00,
2013-02-11 02:08:00,31.3,26.9,30.10,WNW,294,13.5,16.1,84,0.00,,,0.00,VWS V13.01,2013-02-11 08:08:00,
2013-02-11 02:09:00,31.5,27.1,30.10,WNW,285,10.9,14.9,84,0.00,,,0.00,VWS V13.01,2013-02-11 08:09:00,
2013-02-11 02:10:00,37.8,28.6,29.71,WSW,256,29.5,42.1,69,0.00,,,0.00,VWS V13.01,2013-02-11 08:10:00,
2013-02-11 02:11:00,31.5,27.3,30.10,WNW,292,10.2,16.0,84,0.00,,,0.00,VWS V13.01,2013-02-11 08:11:00,
2013-02-11 02:12:00,31.5,27.2,30.10,WSW,256,11.6,15.6,84,0.00,,,0.00,VWS V13.01,2013-02-11 08:12:00,
2013-02-11 02:13:00,31.5,27.3,30.10,WNW,288,12.2,14.5,84,0.00,,,0.00,VWS V13.01,2013-02-11 08:13:00,
2013-02-11 02:14:00,31.5,27.3,30.11,WNW,298,11.7,12.7,84,0.00,,,0.00,VWS V13.01,2013-02-11 08:14:00,
2013-02-11 02:15:00,37.9,29.5,29.72,West,267,33.5,33.5,71,0.00,,,0.00,VWS V13.01,2013-02-11 08:15:00,
2013-02-11 02:16:00,31.4,27.3,30.10,WNW,290,11.4,13.0,85,0.00,,,0.00,VWS V13.01,2013-02-11 08:16:00,
2013-02-11 02:17:00,31.4,27.3,30.10,WNW,294,10.1,12.5,84,0.00,,,0.00,VWS V13.01,2013-02-11 08:17:00,
2013-02-11 02:18:00,31.3,27.1,30.10,WNW,295,9.6,11.5,84,0.00,,,0.00,VWS V13.01,2013-02-11 08:18:00,
2013-02-11 02:19:00,31.5,27.3,30.10,WNW,290,10.9,11.5,84,0.00,,,0.00,VWS V13.01,2013-02-11 08:19:00,
2013-02-11 02:20:00,37.4,28.9,29.72,WSW,249,18.3,27.6,71,0.00,,,0.00,VWS V13.01,2013-02-11 08:20:00,
2013-02-11 02:21:00,31.1,26.8,30.10,WNW,301,11.9,14.0,84,0.00,,,0.00,VWS V13.01,2013-02-11 08:21:00,
2013-02-11 02:22:00,31.2,26.9,30.10,WNW,298,10.4,13.0,84,0.00,,,0.00,VWS V13.01,2013-02-11 08:22:00,
2013-02-11 02:23:00,31.3,27.0,30.10,NW,309,10.4,12.8,84,0.00,,,0.00,VWS V13.01,2013-02-11 08:23:00,
2013-02-11 02:24:00,31.2,26.9,30.10,NW,319,10.4,12.5,84,0.00,,,0.00,VWS V13.01,2013-02-11 08:24:00,
2013-02-11 02:25:00,37.2,28.0,29.72,West,263,33.2,42.2,69,0.00,,,0.00,VWS V13.01,2013-02-11 08:25:00,
2013-02-11 02:26:00,31.3,27.0,30.10,NW,304,9.7,15.0,84,0.00,,,0.00,VWS V13.01,2013-02-11 08:26:00,
2013-02-11 02:27:00,31.3,27.0,30.10,NW,308,11.1,13.9,84,0.00,,,0.00,VWS V13.01,2013-02-11 08:27:00,
2013-02-11 02:28:00,31.2,26.9,30.10,WNW,285,8.8,12.3,84,0.00,,,0.00,VWS V13.01,2013-02-11 08:28:00,
2013-02-11 02:29:00,31.1,26.8,30.10,WNW,301,10.9,11.6,84,0.00,,,0.00,VWS V13.01,2013-02-11 08:29:00,
2013-02-11 02:30:00,37.1,27.8,29.72,West,266,18.3,23.8,69,0.00,,,0.00,VWS V13.01,2013-02-11 08:30:00,
2013-02-11 02:31:00,31.2,26.9,30.10,WNW,290,10.9,13.6,84,0.00,,,0.00,VWS V13.01,2013-02-11 08:31:00,
2013-02-11 02:32:00,31.0,26.7,30.10,WNW,292,10.9,12.0,84,0.00,,,0.00,VWS V13.01,2013-02-11 08:32:00,
2013-02-11 02:33:00,31.1,26.8,30.11,WNW,298,9.0,12.4,84,0.00,,,0.00,VWS V13.01,2013-02-11 08:33:00,
2013-02-11 02:34:00,31.1,26.9,30.10,WNW,283,8.2,10.0,84,0.00,,,0.00,VWS V13.01,2013-02-11 08:34:00,
2013-02-11 02:35:00,37.0,27.5,29.72,West,263,32.6,32.6,68,0.00,,,0.00,VWS V13.01,2013-02-11 08:35:00,
2013-02-11 02:36:00,31.1,26.9,30.10,NW,312,11.9,12.2,84,0.00,,,0.00,VWS V13.01,2013-02-11 08:36:00,
2013-02-11 02:37:00,31.0,26.8,30.10,West,273,7.7,13.6,84,0.00,,,0.00,VWS V13.01,2013-02-11 08:37:00,
2013-02-11 02:38:00,31.1,26.9,30.10,WNW,285,12.2,12.3,84,0.00,,,0.00,VWS V13.01,2013-02-11 08:38:00,
2013-02-11 02:39:00,31.1,26.9,30.11,WNW,298,9.9,13.3,84,0.00,,,0.00,VWS V13.01,2013-02-11 08:39:00,
2013-02-11 02:40:00,36.7,25.6,29.72,West,262,29.6,45.2,64,0.00,,,0.00,VWS V13.01,2013-02-11 08:40:00,
2013-02-11 02:41:00,30.8,26.7,30.11,WNW,300,9.2,11.3,84,0.00,,,0.00,VWS V13.01,2013-02-11 08:41:00,
2013-02-11 02:42:00,31.1,27.0,30.11,NW,305,9.8,10.4,85,0.00,,,0.00,VWS V13.01,2013-02-11 08:42:00,
2013-02-11 02:43:00,31.3,27.3,30.11,WNW,291,7.6,8.5,85,0.00,,,0.00,VWS V13.01,2013-02-11 08:43:00,
2013-02-11 02:44:00,31.1,27.1,30.11,NW,305,10.4,10.4,85,0.00,,,0.00,VWS V13.01,2013-02-11 08:44:00,
2013-02-11 02:45:00,36.4,26.5,29.73,West,269,25.2,39.8,67,0.00,,,0.00,VWS V13.01,2013-02-11 08:45:00,
2013-02-11 02:46:00,31.0,27.1,30.11,WNW,300,9.6,12.0,85,0.00,,,0.00,VWS V13.01,2013-02-11 08:46:00,
2013-02-11 02:47:00,31.0,27.2,30.11,WNW,300,7.6,9.3,86,0.00,,,0.00,VWS V13.01,2013-02-11 08:47:00,
2013-02-11 02:48:00,30.9,27.0,30.11,WNW,294,8.0,10.2,85,0.00,,,0.00,VWS V13.01,2013-02-11 08:48:00,
2013-02-11 02:49:00,31.1,27.2,30.11,NW,304,8.0,9.9,85,0.00,,,0.00,VWS V13.01,2013-02-11 08:49:00,
2013-02-11 02:50:00,36.6,26.4,29.73,West,264,28.8,33.9,66,0.00,,,0.00,VWS V13.01,2013-02-11 08:50:00,
2013-02-11 02:51:00,30.8,26.9,30.11,WNW,283,8.3,9.3,85,0.00,,,0.00,VWS V13.01,2013-02-11 08:51:00,
2013-02-11 02:52:00,30.9,27.0,30.11,NW,305,8.1,9.0,85,0.00,,,0.00,VWS V13.01,2013-02-11 08:52:00,
2013-02-11 02:53:00,30.9,27.0,30.11,WNW,285,6.7,9.1,85,0.00,,,0.00,VWS V13.01,2013-02-11 08:53:00,
2013-02-11 02:54:00,31.1,27.2,30.11,West,271,4.7,10.3,85,0.00,,,0.00,VWS V13.01,2013-02-11 08:54:00,
2013-02-11 02:55:00,36.2,26.6,29.73,WNW,292,26.6,42.8,68,0.00,,,0.00,VWS V13.01,2013-02-11 08:55:00,
2013-02-11 02:56:00,30.9,27.0,30.11,West,277,8.5,9.9,85,0.00,,,0.00,VWS V13.01,2013-02-11 08:56:00,
2013-02-11 02:57:00,30.9,27.0,30.11,WNW,297,8.4,9.7,85,0.00,,,0.00,VWS V13.01,2013-02-11 08:57:00,
2013-02-11 02:58:00,30.7,26.9,30.11,WNW,297,10.9,11.9,86,0.00,,,0.00,VWS V13.01,2013-02-11 08:58:00,
2013-02-11 02:59:00,30.8,27.0,30.11,WNW,297,12.0,12.7,86,0.00,,,0.00,VWS V13.01,2013-02-11 08:59:00,
2013-02-11 03:00:00,36.2,26.3,29.73,SW,235,44.6,44.6,67,0.00,,,0.00,VWS V13.01,2013-02-11 09:00:00,
2013-02-11 03:01:00,30.7,26.9,30.12,WNW,290,7.8,11.9,86,0.00,,,0.00,VWS V13.01,2013-02-11 09:01:00,
2013-02-11 03:02:00,30.8,27.0,30.11,West,277,14.8,15.4,86,0.00,,,0.00,VWS V13.01,2013-02-11 09:02:00,
2013-02-11 03:03:00,30.7,26.9,30.12,NW,307,9.8,12.1,86,0.00,,,0.00,VWS V13.01,2013-02-11 09:03:00,
2013-02-11 03:04:00,30.6,26.8,30.12,West,280,7.5,12.1,86,0.00,,,0.00,VWS V13.01,2013-02-11 09:04:00,
2013-02-11 03:05:00,36.1,26.7,29.73,West,259,22.7,37.8,68,0.00,,,0.00,VWS V13.01,2013-02-11 09:05:00,
2013-02-11 03:06:00,30.8,27.0,30.12,West,280,7.6,9.9,85,0.00,,,0.00,VWS V13.01,2013-02-11 09:06:00,
2013-02-11 03:07:00,30.6,26.8,30.12,WNW,292,9.6,10.8,86,0.00,,,0.00,VWS V13.01,2013-02-11 09:07:00,
2013-02-11 03:08:00,30.6,26.9,30.12,WNW,294,9.9,10.0,86,0.00,,,0.00,VWS V13.01,2013-02-11 09:08:00,
2013-02-11 03:09:00,30.7,27.0,30.12,WNW,283,10.2,10.4,86,0.00,,,0.00,VWS V13.01,2013-02-11 09:09:00,
2013-02-11 03:10:00,36.1,26.5,29.73,WNW,291,31.9,37.0,68,0.00,,,0.00,VWS V13.01,2013-02-11 09:10:00,
2013-02-11 03:11:00,30.8,27.2,30.12,WNW,290,9.8,11.2,86,0.00,,,0.00,VWS V13.01,2013-02-11 09:11:00,
2013-02-11 03:12:00,30.6,27.0,30.12,WNW,295,6.8,9.6,86,0.00,,,0.00,VWS V13.01,2013-02-11 09:12:00,
2013-02-11 03:13:00,30.8,27.2,30.12,WNW,295,10.3,13.5,86,0.00,,,0.00,VWS V13.01,2013-02-11 09:13:00,
2013-02-11 03:14:00,30.7,27.2,30.12,West,270,8.0,8.0,86,0.00,,,0.00,VWS V13.01,2013-02-11 09:14:00,
2013-02-11 03:15:00,35.9,27.0,29.74,West,267,30.4,31.4,70,0.00,,,0.00,VWS V13.01,2013-02-11 09:15:00,
2013-02-11 03:16:00,30.8,27.3,30.12,WNW,301,10.5,10.6,87,0.00,,,0.00,VWS V13.01,2013-02-11 09:16:00,
2013-02-11 03:17:00,30.6,27.2,30.12,West,280,7.1,10.6,87,0.00,,,0.00,VWS V13.01,2013-02-11 09:17:00,
2013-02-11 03:18:00,30.8,27.3,30.12,WNW,297,4.9,6.4,87,0.00,,,0.00,VWS V13.01,2013-02-11 09:18:00,
2013-02-11 03:19:00,30.6,27.1,30.12,WNW,283,7.0,7.6,87,0.00,,,0.00,VWS V13.01,2013-02-11 09:19:00,
2013-02-11 03:20:00,35.8,26.8,29.74,West,271,27.9,30.8,69,0.00,,,0.00,VWS V13.01,2013-02-11 09:20:00,
2013-02-11 03:21:00,30.6,27.1,30.12,West,273,5.8,9.5,87,0.00,,,0.00,VWS V13.01,2013-02-11 09:21:00,
2013-02-11 03:22:00,30.6,27.1,30.12,West,280,7.6,7.6,87,0.00,,,0.00,VWS V13.01,2013-02-11 09:22:00,
2013-02-11 03:23:00,30.6,27.1,30.12,West,281,7.3,8.1,87,0.00,,,0.00,VWS V13.01,2013-02-11 09:23:00,
2013-02-11 03:24:00,30.4,27.0,30.12,West,273,6.3,9.2,87,0.00,,,0.00,VWS V13.01,2013-02-11 09:24:00,
2013-02-11 03:25:00,35.9,27.8,29.74,West,266,30.1,30.1,72,0.00,,,0.00,VWS V13.01,2013-02-11 09:25:00,
2013-02-11 03:26:00,30.1,26.6,30.12,West,280,6.6,8.2,87,0.00,,,0.00,VWS V13.01,2013-02-11 09:26:00,
2013-02-11 03:27:00,30.2,26.8,30.12,West,274,6.8,7.6,87,0.00,,,0.00,VWS V13.01,2013-02-11 09:27:00,
2013-02-11 03:28:00,30.4,27.0,30.12,WNW,283,7.0,7.6,87,0.00,,,0.00,VWS V13.01,2013-02-11 09:28:00,
2013-02-11 03:29:00,30.5,27.1,30.12,NW,307,7.2,7.2,87,0.00,,,0.00,VWS V13.01,2013-02-11 09:29:00,
2013-02-11 03:30:00,35.6,26.6,29.74,West,259,24.5,31.1,69,0.00,,,0.00,VWS V13.01,2013-02-11 09:30:00,
2013-02-11 03:31:00,30.2,26.9,30.12,WNW,291,8.5,9.7,87,0.00,,,0.00,VWS V13.01,2013-02-11 09:31:00,
2013-02-11 03:32:00,30.0,26.8,30.12,WNW,283,8.5,9.8,88,0.00,,,0.00,VWS V13.01,2013-02-11 09:32:00,
2013-02-11 03:33:00,30.1,27.0,30.12,WNW,292,9.4,11.9,88,0.00,,,0.00,VWS V13.01,2013-02-11 09:33:00,
2013-02-11 03:34:00,29.8,26.7,30.12,WNW,287,10.1,10.5,88,0.00,,,0.00,VWS V13.01,2013-02-11 09:34:00,
2013-02-11 03:35:00,35.6,27.0,29.74,West,260,14.5,27.5,71,0.00,,,0.00,VWS V13.01,2013-02-11 09:35:00,
2013-02-11 03:36:00,30.1,27.1,30.12,WNW,288,8.8,10.0,88,0.00,,,0.00,VWS V13.01,2013-02-11 09:36:00,
2013-02-11 03:37:00,30.0,27.1,30.12,WNW,294,9.3,11.0,89,0.00,,,0.00,VWS V13.01,2013-02-11 09:37:00,
2013-02-11 03:38:00,29.8,26.9,30.12,WNW,284,10.4,11.3,89,0.00,,,0.00,VWS V13.01,2013-02-11 09:38:00,
2013-02-11 03:39:00,30.1,27.2,30.12,WNW,301,9.6,11.4,89,0.00,,,0.00,VWS V13.01,2013-02-11 09:39:00,
2013-02-11 03:40:00,35.5,26.5,29.74,West,263,28.9,35.5,69,0.00,,,0.00,VWS V13.01,2013-02-11 09:40:00,
2013-02-11 03:41:00,29.9,27.1,30.12,WNW,294,6.6,10.1,89,0.00,,,0.00,VWS V13.01,2013-02-11 09:41:00,
2013-02-11 03:42:00,30.1,27.4,30.12,WNW,287,10.1,12.7,89,0.00,,,0.00,VWS V13.01,2013-02-11 09:42:00,
2013-02-11 03:43:00,29.9,27.1,30.12,West,270,8.9,11.1,89,0.00,,,0.00,VWS V13.01,2013-02-11 09:43:00,
2013-02-11 03:44:00,30.4,27.7,30.12,WSW,243,6.3,9.0,89,0.00,,,0.00,VWS V13.01,2013-02-11 09:44:00,
2013-02-11 03:45:00,35.4,26.7,29.75,West,276,34.1,34.1,70,0.00,,,0.00,VWS V13.01,2013-02-11 09:45:00,
2013-02-11 03:46:00,30.3,27.6,30.12,West,277,11.7,11.7,89,0.00,,,0.00,VWS V13.01,2013-02-11 09:46:00,
2013-02-11 03:47:00,30.0,27.2,30.12,WNW,295,11.6,12.4,89,0.00,,,0.00,VWS V13.01,2013-02-11 09:47:00,
2013-02-11 03:48:00,30.1,27.3,30.12,West,278,9.2,11.2,89,0.00,,,0.00,VWS V13.01,2013-02-11 09:48:00,
2013-02-11 03:49:00,30.0,27.1,30.12,West,276,10.4,13.1,89,0.00,,,0.00,VWS V13.01,2013-02-11 09:49:00,
2013-02-11 03:50:00,35.4,26.7,29.75,West,260,24.2,33.1,70,0.00,,,0.00,VWS V13.01,2013-02-11 09:50:00,
2013-02-11 03:51:00,30.0,27.2,30.12,West,267,14.4,16.7,89,0.00,,,0.00,VWS V13.01,2013-02-11 09:51:00,
2013-02-11 03:52:00,30.0,27.1,30.12,WNW,301,13.0,19.4,89,0.00,,,0.00,VWS V13.01,2013-02-11 09:52:00,
2013-02-11 03:53:00,30.2,27.3,30.13,WNW,291,12.7,13.7,89,0.00,,,0.00,VWS V13.01,2013-02-11 09:53:00,
2013-02-11 03:54:00,30.1,27.1,30.13,WNW,291,15.3,15.3,89,0.00,,,0.00,VWS V13.01,2013-02-11 09:54:00,
2013-02-11 03:55:00,35.4,26.1,29.75,West,266,33.9,47.3,69,0.00,,,0.00,VWS V13.01,2013-02-11 09:55:00,
2013-02-11 03:56:00,30.3,27.3,30.12,WNW,287,12.3,17.4,88,0.00,,,0.00,VWS V13.01,2013-02-11 09:56:00,
2013-02-11 03:57:00,30.1,27.1,30.12,West,280,15.2,16.2,88,0.00,,,0.00,VWS V13.01,2013-02-11 09:57:00,
2013-02-11 03:58:00,30.5,27.4,30.13,West,276,12.5,15.4,88,0.00,,,0.00,VWS V13.01,2013-02-11 09:58:00,
2013-02-11 03:59:00,30.3,27.2,30.12,WNW,287,12.7,14.3,88,0.00,,,0.00,VWS V13.01,2013-02-11 09:59:00,
2013-02-11 04:00:00,35.3,26.3,29.75,West,264,28.1,34.1,70,0.00,,,0.00,VWS V13.01,2013-02-11 10:00:00,
2013-02-11 04:01:00,30.2,27.1,30.13,West,277,9.4,14.2,88,0.00,,,0.00,VWS V13.01,2013-02-11 10:01:00,
2013-02-11 04:02:00,30.6,27.5,30.13,WNW,298,9.4,11.9,88,0.00,,,0.00,VWS V13.01,2013-02-11 10:02:00,
2013-02-11 04:03:00,30.2,27.1,30.12,West,278,12.4,14.5,88,0.00,,,0.00,VWS V13.01,2013-02-11 10:03:00,
2013-02-11 04:04:00,30.2,27.1,30.13,WNW,288,11.7,13.9,88,0.00,,,0.00,VWS V13.01,2013-02-11 10:04:00,
2013-02-11 04:05:00,35.3,26.3,29.76,West,269,27.2,33.1,70,0.00,,,0.00,VWS V13.01,2013-02-11 10:05:00,
2013-02-11 04:06:00,30.4,27.2,30.12,WNW,287,12.6,14.7,88,0.00,,,0.00,VWS V13.01,2013-02-11 10:06:00,
2013-02-11 04:07:00,30.3,27.2,30.13,WNW,291,13.2,18.2,88,0.00,,,0.00,VWS V13.01,2013-02-11 10:07:00,
2013-02-11 04:08:00,30.4,27.3,30.13,West,276,10.9,15.3,88,0.00,,,0.00,VWS V13.01,2013-02-11 10:08:00,
2013-02-11 04:09:00,30.2,27.1,30.13,WNW,285,10.7,14.5,88,0.00,,,0.00,VWS V13.01,2013-02-11 10:09:00,
2013-02-11 04:10:00,35.3,26.3,29.76,West,278,21.6,26.7,69,0.00,,,0.00,VWS V13.01,2013-02-11 10:10:00,
2013-02-11 04:11:00,30.4,27.4,30.13,WNW,285,14.5,16.6,88,0.00,,,0.00,VWS V13.01,2013-02-11 10:11:00,
2013-02-11 04:12:00,30.4,27.4,30.13,WNW,292,15.1,16.2,88,0.00,,,0.00,VWS V13.01,2013-02-11 10:12:00,
2013-02-11 04:13:00,30.6,27.6,30.13,WNW,287,11.0,15.8,88,0.00,,,0.00,VWS V13.01,2013-02-11 10:13:00,
2013-02-11 04:14:00,30.1,27.2,30.13,West,280,10.5,12.2,89,0.00,,,0.00,VWS V13.01,2013-02-11 10:14:00,
2013-02-11 04:15:00,35.2,26.1,29.76,West,267,19.3,29.3,69,0.00,,,0.00,VWS V13.01,2013-02-11 10:15:00,
2013-02-11 04:16:00,30.5,27.5,30.13,West,262,8.2,13.4,88,0.00,,,0.00,VWS V13.01,2013-02-11 10:16:00,
2013-02-11 04:17:00,30.3,27.2,30.13,West,280,10.3,13.8,88,0.00,,,0.00,VWS V13.01,2013-02-11 10:17:00,
2013-02-11 04:18:00,30.5,27.4,30.13,WNW,300,11.6,13.2,88,0.00,,,0.00,VWS V13.01,2013-02-11 10:18:00,
2013-02-11 04:19:00,30.3,27.2,30.13,WNW,287,8.9,10.2,88,0.00,,,0.00,VWS V13.01,2013-02-11 10:19:00,
2013-02-11 04:20:00,35.4,26.3,29.76,WSW,249,24.9,27.7,69,0.00,,,0.00,VWS V13.01,2013-02-11 10:20:00,
2013-02-11 04:21:00,30.0,26.9,30.13,WNW,283,8.3,11.3,88,0.00,,,0.00,VWS V13.01,2013-02-11 10:21:00,
2013-02-11 04:22:00,30.1,27.0,30.13,WNW,295,10.0,10.3,88,0.00,,,0.00,VWS V13.01,2013-02-11 10:22:00,
2013-02-11 04:23:00,30.3,27.2,30.13,WNW,284,10.6,11.9,88,0.00,,,0.00,VWS V13.01,2013-02-11 10:23:00,
2013-02-11 04:24:00,30.2,27.1,30.13,WNW,290,9.9,10.6,88,0.00,,,0.00,VWS V13.01,2013-02-11 10:24:00,
2013-02-11 04:25:00,35.2,25.7,29.76,West,266,20.3,33.2,68,0.00,,,0.00,VWS V13.01,2013-02-11 10:25:00,
2013-02-11 04:26:00,30.1,27.1,30.13,WNW,290,12.7,13.7,88,0.00,,,0.00,VWS V13.01,2013-02-11 10:26:00,
2013-02-11 04:27:00,30.4,27.4,30.13,WNW,287,9.8,14.2,88,0.00,,,0.00,VWS V13.01,2013-02-11 10:27:00,
2013-02-11 04:28:00,30.1,27.1,30.13,WNW,290,12.0,13.5,88,0.00,,,0.00,VWS V13.01,2013-02-11 10:28:00,
2013-02-11 04:29:00,30.1,27.1,30.13,WNW,285,12.4,13.0,88,0.00,,,0.00,VWS V13.01,2013-02-11 10:29:00,
2013-02-11 04:30:00,35.3,25.8,29.76,WSW,243,19.3,27.6,68,0.00,,,0.00,VWS V13.01,2013-02-11 10:30:00,
2013-02-11 04:31:00,30.2,27.2,30.13,WNW,290,14.7,17.5,88,0.00,,,0.00,VWS V13.01,2013-02-11 10:31:00,
2013-02-11 04:32:00,29.7,26.8,30.13,WNW,285,18.0,19.6,89,0.00,,,0.00,VWS V13.01,2013-02-11 10:32:00,
2013-02-11 04:33:00,29.9,26.9,30.13,WNW,297,16.3,19.3,88,0.00,,,0.00,VWS V13.01,2013-02-11 10:33:00,
2013-02-11 04:34:00,29.8,26.7,30.13,WNW,295,11.9,19.4,88,0.00,,,0.00,VWS V13.01,2013-02-11 10:34:00,
2013-02-11 04:35:00,35.3,25.9,29.76,West,269,33.9,39.1,68,0.00,,,0.00,VWS V13.01,2013-02-11 10:35:00,
2013-02-11 04:36:00,29.9,26.8,30.13,West,278,13.1,18.7,88,0.00,,,0.00,VWS V13.01,2013-02-11 10:36:00,
2013-02-11 04:37:00,30.0,26.9,30.13,WNW,301,13.5,20.1,88,0.00,,,0.00,VWS V13.01,2013-02-11 10:37:00,
2013-02-11 04:38:00,30.0,27.0,30.13,WNW,291,12.0,14.5,88,0.00,,,0.00,VWS V13.01,2013-02-11 10:38:00,
2013-02-11 04:39:00,30.3,27.3,30.13,WNW,291,10.4,15.0,88,0.00,,,0.00,VWS V13.01,2013-02-11 10:39:00,
2013-02-11 04:40:00,35.4,25.8,29.76,West,260,23.3,31.8,68,0.00,,,0.00,VWS V13.01,2013-02-11 10:40:00,
2013-02-11 04:41:00,29.9,26.9,30.13,West,273,13.0,15.0,88,0.00,,,0.00,VWS V13.01,2013-02-11 10:41:00,
2013-02-11 04:42:00,30.0,27.0,30.13,West,274,10.6,13.0,88,0.00,,,0.00,VWS V13.01,2013-02-11 10:42:00,
2013-02-11 04:43:00,30.0,27.2,30.13,WNW,292,9.9,12.4,89,0.00,,,0.00,VWS V13.01,2013-02-11 10:43:00,
2013-02-11 04:44:00,29.9,27.1,30.13,WNW,285,10.4,13.5,89,0.00,,,0.00,VWS V13.01,2013-02-11 10:44:00,
2013-02-11 04:45:00,35.3,26.3,29.76,WSW,243,24.7,27.3,69,0.00,,,0.00,VWS V13.01,2013-02-11 10:45:00,
2013-02-11 04:46:00,29.8,26.9,30.14,WNW,288,12.4,14.8,89,0.00,,,0.00,VWS V13.01,2013-02-11 10:46:00,
2013-02-11 04:47:00,29.8,26.9,30.14,West,280,12.5,13.7,89,0.00,,,0.00,VWS V13.01,2013-02-11 10:47:00,
2013-02-11 04:48:00,30.0,27.0,30.14,West,280,11.7,11.7,89,0.00,,,0.00,VWS V13.01,2013-02-11 10:48:00,
2013-02-11 04:49:00,29.7,26.8,30.14,WNW,288,11.7,13.0,89,0.00,,,0.00,VWS V13.01,2013-02-11 10:49:00,
2013-02-11 04:50:00,35.1,25.4,29.77,West,267,26.9,31.6,68,0.00,,,0.00,VWS V13.01,2013-02-11 10:50:00,
2013-02-11 04:51:00,29.9,27.0,30.14,West,281,9.8,11.7,89,0.00,,,0.00,VWS V13.01,2013-02-11 10:51:00,
2013-02-11 04:52:00,29.7,26.8,30.14,West,274,9.6,10.5,89,0.00,,,0.00,VWS V13.01,2013-02-11 10:52:00,
2013-02-11 04:53:00,29.6,26.8,30.14,WNW,290,11.3,11.7,89,0.00,,,0.00,VWS V13.01,2013-02-11 10:53:00,
2013-02-11 04:54:00,29.6,26.8,30.14,WNW,294,8.5,10.8,89,0.00,,,0.00,VWS V13.01,2013-02-11 10:54:00,
2013-02-11 04:55:00,35.3,25.5,29.77,West,270,36.7,36.7,67,0.00,,,0.00,VWS V13.01,2013-02-11 10:55:00,
2013-02-11 04:56:00,29.7,26.9,30.14,WNW,291,10.1,11.4,89,0.00,,,0.00,VWS V13.01,2013-02-11 10:56:00,
2013-02-11 04:57:00,29.6,26.9,30.14,WNW,288,10.3,12.0,89,0.00,,,0.00,VWS V13.01,2013-02-11 10:57:00,
2013-02-11 04:58:00,29.6,26.9,30.14,WNW,283,8.1,10.9,89,0.00,,,0.00,VWS V13.01,2013-02-11 10:58:00,
2013-02-11 04:59:00,29.6,26.9,30.14,WNW,287,9.6,11.7,90,0.00,,,0.00,VWS V13.01,2013-02-11 10:59:00,
2013-02-11 05:00:00,35.2,25.1,29.77,West,269,31.4,44.2,66,0.00,,,0.00,VWS V13.01,2013-02-11 11:00:00,
2013-02-11 05:01:00,29.7,27.0,30.14,West,281,7.5,11.2,90,0.00,,,0.00,VWS V13.01,2013-02-11 11:01:00,
2013-02-11 05:02:00,29.7,27.0,30.14,West,266,12.1,12.1,90,0.00,,,0.00,VWS V13.01,2013-02-11 11:02:00,
2013-02-11 05:03:00,29.6,26.9,30.14,WNW,298,10.1,11.8,90,0.00,,,0.00,VWS V13.01,2013-02-11 11:03:00,
2013-02-11 05:04:00,29.5,26.9,30.14,WNW,287,10.3,14.4,90,0.00,,,0.00,VWS V13.01,2013-02-11 11:04:00,
2013-02-11 05:05:00,35.2,24.5,29.77,West,266,29.7,40.0,65,0.00,,,0.00,VWS V13.01,2013-02-11 11:05:00,
2013-02-11 05:06:00,29.5,27.0,30.14,West,278,10.4,11.1,90,0.00,,,0.00,VWS V13.01,2013-02-11 11:06:00,
2013-02-11 05:07:00,29.6,27.1,30.14,WNW,300,11.6,13.5,90,0.00,,,0.00,VWS V13.01,2013-02-11 11:07:00,
2013-02-11 05:08:00,29.5,27.0,30.14,West,271,9.4,12.7,90,0.00,,,0.00,VWS V13.01,2013-02-11 11:08:00,
2013-02-11 05:09:00,29.5,27.0,30.14,West,277,9.0,10.3,90,0.00,,,0.00,VWS V13.01,2013-02-11 11:09:00,
2013-02-11 05:10:00,35.3,24.5,29.78,West,281,35.7,40.8,64,0.00,,,0.00,VWS V13.01,2013-02-11 11:10:00,
2013-02-11 05:11:00,29.3,26.9,30.14,WNW,287,10.0,10.0,90,0.00,,,0.00,VWS V13.01,2013-02-11 11:11:00,
2013-02-11 05:12:00,29.3,26.9,30.14,West,267,10.1,12.7,91,0.00,,,0.00,VWS V13.01,2013-02-11 11:12:00,
2013-02-11 05:13:00,29.3,27.0,30.14,West,277,7.8,10.4,91,0.00,,,0.00,VWS V13.01,2013-02-11 11:13:00,
2013-02-11 05:14:00,29.4,27.0,30.14,West,271,8.1,11.2,91,0.00,,,0.00,VWS V13.01,2013-02-11 11:14:00,
2013-02-11 05:15:00,35.3,25.5,29.79,West,276,24.9,36.4,67,0.00,,,0.00,VWS V13.01,2013-02-11 11:15:00,
2013-02-11 05:16:00,29.3,26.8,30.14,West,269,9.1,11.2,90,0.00,,,0.00,VWS V13.01,2013-02-11 11:16:00,
2013-02-11 05:17:00,29.5,27.0,30.14,West,280,9.3,10.5,90,0.00,,,0.00,VWS V13.01,2013-02-11 11:17:00,
2013-02-11 05:18:00,29.4,26.9,30.13,WNW,284,8.8,10.0,90,0.00,,,0.00,VWS V13.01,2013-02-11 11:18:00,
2013-02-11 05:19:00,29.3,26.8,30.13,WNW,291,11.6,11.6,90,0.00,,,0.00,VWS V13.01,2013-02-11 11:19:00,
2013-02-11 05:20:00,35.3,24.4,29.79,West,280,38.9,40.8,64,0.00,,,0.00,VWS V13.01,2013-02-11 11:20:00,
2013-02-11 05:21:00,29.5,27.0,30.13,West,281,8.3,11.0,90,0.00,,,0.00,VWS V13.01,2013-02-11 11:21:00,
2013-02-11 05:22:00,29.4,26.9,30.13,West,278,9.0,9.4,90,0.00,,,0.00,VWS V13.01,2013-02-11 11:22:00,
2013-02-11 05:23:00,29.2,26.8,30.14,WNW,288,8.8,10.1,90,0.00,,,0.00,VWS V13.01,2013-02-11 11:23:00,
2013-02-11 05:24:00,29.4,27.0,30.13,West,276,8.8,10.9,90,0.00,,,0.00,VWS V13.01,2013-02-11 11:24:00,
2013-02-11 05:25:00,35.1,25.1,29.79,West,276,30.5,31.9,67,0.00,,,0.00,VWS V13.01,2013-02-11 11:25:00,
2013-02-11 05:26:00,29.1,26.7,30.14,West,273,10.3,10.8,91,0.00,,,0.00,VWS V13.01,2013-02-11 11:26:00,
2013-02-11 05:27:00,29.0,26.6,30.14,West,278,10.3,10.3,91,0.00,,,0.00,VWS V13.01,2013-02-11 11:27:00,
2013-02-11 05:28:00,29.0,26.7,30.14,WNW,285,8.9,10.6,91,0.00,,,0.00,VWS V13.01,2013-02-11 11:28:00,
2013-02-11 05:29:00,29.0,26.7,30.14,WNW,290,9.7,11.2,91,0.00,,,0.00,VWS V13.01,2013-02-11 11:29:00,
2013-02-11 05:30:00,34.9,24.7,29.79,West,266,19.0,35.5,66,0.00,,,0.00,VWS V13.01,2013-02-11 11:30:00,
2013-02-11 05:31:00,29.1,26.9,30.14,West,280,9.9,10.9,91,0.00,,,0.00,VWS V13.01,2013-02-11 11:31:00,
2013-02-11 05:32:00,28.9,26.7,30.14,West,270,9.4,11.2,91,0.00,,,0.00,VWS V13.01,2013-02-11 11:32:00,
2013-02-11 05:33:00,28.8,26.7,30.14,WNW,292,7.6,10.4,92,0.00,,,0.00,VWS V13.01,2013-02-11 11:33:00,
2013-02-11 05:34:00,28.9,26.7,30.14,West,278,10.2,11.7,92,0.00,,,0.00,VWS V13.01,2013-02-11 11:34:00,
2013-02-11 05:35:00,34.8,25.0,29.79,West,260,21.4,25.8,67,0.00,,,0.00,VWS V13.01,2013-02-11 11:35:00,
2013-02-11 05:36:00,28.9,26.9,30.14,WNW,287,8.7,9.5,92,0.00,,,0.00,VWS V13.01,2013-02-11 11:36:00,
2013-02-11 05:37:00,28.8,26.9,30.14,WNW,290,9.7,11.0,92,0.00,,,0.00,VWS V13.01,2013-02-11 11:37:00,
2013-02-11 05:38:00,28.8,26.9,30.14,WNW,284,10.4,10.4,93,0.00,,,0.00,VWS V13.01,2013-02-11 11:38:00,
2013-02-11 05:39:00,28.9,27.1,30.14,West,276,10.3,11.0,93,0.00,,,0.00,VWS V13.01,2013-02-11 11:39:00,
2013-02-11 05:40:00,34.5,24.0,29.79,WNW,284,17.1,40.8,65,0.00,,,0.00,VWS V13.01,2013-02-11 11:40:00,
2013-02-11 05:41:00,28.9,27.2,30.15,WNW,283,8.9,11.2,93,0.00,,,0.00,VWS V13.01,2013-02-11 11:41:00,
2013-02-11 05:42:00,28.8,27.1,30.15,West,269,6.6,9.6,93,0.00,,,0.00,VWS V13.01,2013-02-11 11:42:00,
2013-02-11 05:43:00,28.8,27.1,30.15,West,276,7.6,9.1,93,0.00,,,0.00,VWS V13.01,2013-02-11 11:43:00,
2013-02-11 05:44:00,28.8,27.1,30.15,West,271,9.3,9.9,93,0.00,,,0.00,VWS V13.01,2013-02-11 11:44:00,
2013-02-11 05:45:00,34.8,24.3,29.79,West,259,20.6,33.3,65,0.00,,,0.00,VWS V13.01,2013-02-11 11:45:00,
2013-02-11 05:46:00,28.7,27.0,30.15,WNW,285,7.6,9.1,93,0.00,,,0.00,VWS V13.01,2013-02-11 11:46:00,
2013-02-11 05:50:00,34.7,24.4,29.80,West,264,28.5,28.5,66,0.00,,,0.00,VWS V13.01,2013-02-11 11:50:00,
2013-02-11 05:55:00,34.7,25.0,29.80,WNW,284,24.7,30.9,67,0.00,,,0.00,VWS V13.01,2013-02-11 11:55:00,
2013-02-11 06:00:00,34.6,24.7,29.80,WNW,285,14.0,27.8,67,0.00,,,0.00,VWS V13.01,2013-02-11 12:00:00,
2013-02-11 06:05:00,34.7,25.3,29.80,West,262,20.8,29.1,68,0.00,,,0.00,VWS V13.01,2013-02-11 12:05:00,
2013-02-11 06:10:00,34.4,24.6,29.80,West,273,24.7,31.9,67,0.00,,,0.00,VWS V13.01,2013-02-11 12:10:00,
2013-02-11 06:15:00,34.4,24.0,29.81,West,266,19.9,29.4,65,0.00,,,0.00,VWS V13.01,2013-02-11 12:15:00,
2013-02-11 06:20:00,34.5,24.0,29.81,West,266,28.3,42.4,65,0.00,,,0.00,VWS V13.01,2013-02-11 12:20:00,
2013-02-11 06:25:00,34.3,23.9,29.81,West,270,30.3,31.8,65,0.00,,,0.00,VWS V13.01,2013-02-11 12:25:00,
2013-02-11 06:30:00,34.4,23.1,29.82,West,274,27.8,33.6,63,0.00,,,0.00,VWS V13.01,2013-02-11 12:30:00,
2013-02-11 06:35:00,34.2,23.9,29.82,WNW,283,21.6,28.1,66,0.00,,,0.00,VWS V13.01,2013-02-11 12:35:00,
2013-02-11 06:40:00,34.3,24.2,29.82,West,274,20.1,26.5,66,0.00,,,0.00,VWS V13.01,2013-02-11 12:40:00,
2013-02-11 06:45:00,34.3,24.2,29.82,West,269,18.7,32.9,66,0.00,,,0.00,VWS V13.01,2013-02-11 12:45:00,
2013-02-11 06:50:00,34.2,24.3,29.82,West,277,22.7,27.2,67,0.00,,,0.00,VWS V13.01,2013-02-11 12:50:00,
2013-02-11 06:55:00,34.1,24.0,29.82,West,263,23.4,28.8,66,0.00,,,0.00,VWS V13.01,2013-02-11 12:55:00,
2013-02-11 07:00:00,34.2,24.1,29.83,WNW,287,19.2,26.7,66,0.00,,,0.00,VWS V13.01,2013-02-11 13:00:00,
2013-02-11 07:05:00,34.0,24.5,29.83,West,276,20.4,28.2,68,0.00,,,0.00,VWS V13.01,2013-02-11 13:05:00,
2013-02-11 07:10:00,33.8,24.3,29.84,West,262,14.6,23.9,68,0.00,,,0.00,VWS V13.01,2013-02-11 13:10:00,
2013-02-11 07:15:00,34.1,24.1,29.84,West,270,18.5,27.2,66,0.00,,,0.00,VWS V13.01,2013-02-11 13:15:00,
2013-02-11 07:20:00,34.0,24.1,29.84,West,276,31.6,31.6,67,0.00,,,0.00,VWS V13.01,2013-02-11 13:20:00,
2013-02-11 07:25:00,34.3,24.8,29.84,West,280,24.9,25.0,68,0.00,,,0.00,VWS V13.01,2013-02-11 13:25:00,
2013-02-11 07:30:00,34.2,24.3,29.85,West,271,20.7,20.7,67,0.00,,,0.00,VWS V13.01,2013-02-11 13:30:00,
2013-02-11 07:35:00,34.0,23.6,29.85,West,263,19.9,27.7,65,0.00,,,0.00,VWS V13.01,2013-02-11 13:35:00,
2013-02-11 07:40:00,34.3,24.0,29.85,West,270,15.6,25.2,66,0.00,,,0.00,VWS V13.01,2013-02-11 13:40:00,
2013-02-11 07:45:00,34.2,23.5,29.85,WNW,283,26.0,33.7,64,0.00,,,0.00,VWS V13.01,2013-02-11 13:45:00,
2013-02-11 07:50:00,34.1,24.0,29.86,WNW,287,23.1,24.0,66,0.00,,,0.00,VWS V13.01,2013-02-11 13:50:00,
2013-02-11 07:55:00,34.1,24.7,29.86,SSW,200,15.2,24.5,68,0.00,,,0.00,VWS V13.01,2013-02-11 13:55:00,
2013-02-11 08:00:00,34.1,24.5,29.86,West,280,18.9,31.2,67,0.00,,,0.00,VWS V13.01,2013-02-11 14:00:00,
2013-02-11 08:05:00,34.2,25.0,29.87,West,271,17.3,23.4,69,0.00,,,0.00,VWS V13.01,2013-02-11 14:05:00,
2013-02-11 08:10:00,34.1,24.8,29.87,WNW,285,18.7,28.1,68,0.00,,,0.00,VWS V13.01,2013-02-11 14:10:00,
2013-02-11 08:15:00,33.9,24.7,29.87,West,267,25.2,25.3,69,0.00,,,0.00,VWS V13.01,2013-02-11 14:15:00,
2013-02-11 08:20:00,33.9,24.4,29.88,WSW,250,20.6,24.2,68,0.00,,,0.00,VWS V13.01,2013-02-11 14:20:00,
2013-02-11 08:25:00,34.0,24.1,29.88,WSW,238,17.3,31.9,67,0.00,,,0.00,VWS V13.01,2013-02-11 14:25:00,
2013-02-11 08:30:00,34.1,25.7,29.88,NW,304,10.7,28.4,71,0.00,,,0.00,VWS V13.01,2013-02-11 14:30:00,
2013-02-11 08:35:00,33.9,24.9,29.88,NW,304,16.9,24.0,69,0.00,,,0.00,VWS V13.01,2013-02-11 14:35:00,
2013-02-11 08:40:00,34.2,25.9,29.89,WNW,291,21.1,25.4,71,0.00,,,0.00,VWS V13.01,2013-02-11 14:40:00,
2013-02-11 08:45:00,34.2,25.7,29.89,West,271,19.6,26.2,71,0.00,,,0.00,VWS V13.01,2013-02-11 14:45:00,
2013-02-11 08:50:00,34.1,26.0,29.89,West,264,14.7,17.0,72,0.00,,,0.00,VWS V13.01,2013-02-11 14:50:00,
2013-02-11 08:55:00,34.2,25.5,29.89,West,267,23.9,28.5,70,0.00,,,0.00,VWS V13.01,2013-02-11 14:55:00,
2013-02-11 09:00:00,34.1,25.8,29.90,WNW,301,33.1,37.7,71,0.00,,,0.00,VWS V13.01,2013-02-11 15:00:00,
2013-02-11 09:05:00,34.1,24.0,29.90,West,266,19.9,27.7,66,0.00,,,0.00,VWS V13.01,2013-02-11 15:05:00,
2013-02-11 09:10:00,34.3,24.1,29.90,West,274,33.9,35.2,66,0.00,,,0.00,VWS V13.01,2013-02-11 15:10:00,
2013-02-11 09:14:00,34.2,23.0,29.90,WNW,292,21.3,32.6,63,0.00,,,0.00,VWS V13.01,2013-02-11 15:14:00,
2013-02-11 09:19:00,34.1,22.6,29.90,West,271,28.0,33.8,62,0.00,,,0.00,VWS V13.01,2013-02-11 15:19:00,
2013-02-11 09:24:00,34.3,24.0,29.91,WSW,239,16.5,26.8,66,0.00,,,0.00,VWS V13.01,2013-02-11 15:24:00,
2013-02-11 09:29:00,34.4,23.5,29.91,West,266,15.7,32.0,64,0.00,,,0.00,VWS V13.01,2013-02-11 15:29:00,
2013-02-11 09:34:00,34.2,24.4,29.91,West,263,21.0,23.4,67,0.00,,,0.00,VWS V13.01,2013-02-11 15:34:00,
2013-02-11 09:39:00,34.2,23.9,29.92,SW,232,25.6,28.1,66,0.00,,,0.00,VWS V13.01,2013-02-11 15:39:00,
2013-02-11 09:44:00,34.2,23.9,29.92,West,274,30.8,30.8,66,0.00,,,0.00,VWS V13.01,2013-02-11 15:44:00,
2013-02-11 09:49:00,34.1,23.2,29.92,West,269,20.4,27.0,64,0.00,,,0.00,VWS V13.01,2013-02-11 15:49:00,
2013-02-11 09:54:00,34.3,24.2,29.92,WSW,255,17.7,28.8,66,0.00,,,0.00,VWS V13.01,2013-02-11 15:54:00,
2013-02-11 09:59:00,34.4,24.8,29.92,West,281,18.1,24.3,68,0.00,,,0.00,VWS V13.01,2013-02-11 15:59:00,
2013-02-11 10:04:00,34.4,24.0,29.93,West,266,26.2,26.2,65,0.00,,,0.00,VWS V13.01,2013-02-11 16:04:00,
2013-02-11 10:09:00,34.5,25.0,29.93,West,269,18.7,26.3,68,0.00,,,0.00,VWS V13.01,2013-02-11 16:09:00,
2013-02-11 10:14:00,34.4,24.7,29.93,WNW,297,11.9,23.8,67,0.00,,,0.00,VWS V13.01,2013-02-11 16:14:00,
2013-02-11 10:19:00,34.6,24.2,29.93,West,274,24.2,27.1,66,0.00,,,0.00,VWS V13.01,2013-02-11 16:19:00,
2013-02-11 10:24:00,34.3,25.0,29.94,West,264,21.5,24.0,68,0.00,,,0.00,VWS V13.01,2013-02-11 16:24:00,
2013-02-11 10:29:00,34.6,24.7,29.94,West,278,23.7,27.9,67,0.00,,,0.00,VWS V13.01,2013-02-11 16:29:00,
2013-02-11 10:34:00,34.6,24.2,29.95,NW,325,13.0,30.6,65,0.00,,,0.00,VWS V13.01,2013-02-11 16:34:00,
2013-02-11 10:39:00,34.7,24.9,29.95,West,281,18.6,32.1,67,0.00,,,0.00,VWS V13.01,2013-02-11 16:39:00,
2013-02-11 10:44:00,34.7,25.8,29.95,West,274,20.0,21.7,70,0.00,,,0.00,VWS V13.01,2013-02-11 16:44:00,
2013-02-11 10:49:00,34.8,25.7,29.95,WNW,295,19.2,26.8,69,0.00,,,0.00,VWS V13.01,2013-02-11 16:49:00,
2013-02-11 10:54:00,34.7,25.1,29.95,WSW,245,24.9,29.4,68,0.00,,,0.00,VWS V13.01,2013-02-11 16:54:00,
2013-02-11 10:59:00,34.8,25.2,29.95,West,274,23.5,25.7,68,0.00,,,0.00,VWS V13.01,2013-02-11 16:59:00,
2013-02-11 11:04:00,34.9,26.1,29.95,West,278,27.9,32.1,70,0.00,,,0.00,VWS V13.01,2013-02-11 17:04:00,
2013-02-11 11:09:00,34.7,25.2,29.95,West,271,18.1,24.5,68,0.00,,,0.00,VWS V13.01,2013-02-11 17:09:00,
2013-02-11 11:14:00,35.1,25.6,29.95,WNW,288,25.5,30.8,68,0.00,,,0.00,VWS V13.01,2013-02-11 17:14:00,
2013-02-11 11:19:00,35.0,25.3,29.95,West,271,19.4,26.0,68,0.00,,,0.00,VWS V13.01,2013-02-11 17:19:00,
2013-02-11 11:24:00,35.0,24.6,29.95,West,266,24.0,29.1,66,0.00,,,0.00,VWS V13.01,2013-02-11 17:24:00,
2013-02-11 11:29:00,35.4,25.5,29.95,WNW,288,25.7,34.9,67,0.00,,,0.00,VWS V13.01,2013-02-11 17:29:00,
2013-02-11 11:34:00,35.6,24.8,29.96,WNW,292,32.3,35.0,64,0.00,,,0.00,VWS V13.01,2013-02-11 17:34:00,
2013-02-11 11:39:00,35.4,24.2,29.96,WNW,283,29.7,35.2,63,0.00,,,0.00,VWS V13.01,2013-02-11 17:39:00,
2013-02-11 11:44:00,35.5,23.8,29.96,West,270,30.9,39.9,62,0.00,,,0.00,VWS V13.01,2013-02-11 17:44:00,
2013-02-11 11:49:00,36.1,23.6,29.96,NW,319,25.5,34.0,60,0.00,,,0.00,VWS V13.01,2013-02-11 17:49:00,
2013-02-11 11:54:00,36.1,24.7,29.96,West,266,24.9,27.1,63,0.00,,,0.00,VWS V13.01,2013-02-11 17:54:00,
2013-02-11 11:59:00,35.8,24.1,29.96,NW,304,20.2,29.9,62,0.00,,,0.00,VWS V13.01,2013-02-11 17:59:00,
2013-02-11 12:04:00,35.6,24.3,29.96,NW,307,27.0,29.3,63,0.00,,,0.00,VWS V13.01,2013-02-11 18:04:00,
2013-02-11 12:09:00,35.7,25.1,29.97,WNW,285,20.4,27.9,65,0.00,,,0.00,VWS V13.01,2013-02-11 18:09:00,
2013-02-11 12:14:00,36.1,25.7,29.96,West,263,26.5,34.2,66,0.00,,,0.00,VWS V13.01,2013-02-11 18:14:00,
2013-02-11 12:19:00,35.6,24.8,29.96,West,264,19.6,28.6,64,0.00,,,0.00,VWS V13.01,2013-02-11 18:19:00,
2013-02-11 12:24:00,35.5,25.1,29.96,NW,308,22.4,33.2,66,0.00,,,0.00,VWS V13.01,2013-02-11 18:24:00,
2013-02-11 12:29:00,35.7,25.7,29.96,NW,304,22.1,27.2,67,0.00,,,0.00,VWS V13.01,2013-02-11 18:29:00,
2013-02-11 12:34:00,36.1,26.9,29.96,WNW,298,28.2,29.7,69,0.00,,,0.00,VWS V13.01,2013-02-11 18:34:00,
2013-02-11 12:39:00,36.7,26.6,29.96,WNW,290,22.1,26.9,66,0.00,,,0.00,VWS V13.01,2013-02-11 18:39:00,
2013-02-11 12:44:00,37.0,27.6,29.96,WNW,288,19.4,29.8,68,0.00,,,0.00,VWS V13.01,2013-02-11 18:44:00,
2013-02-11 12:49:00,37.0,25.7,29.97,WNW,285,21.2,30.2,63,0.00,,,0.00,VWS V13.01,2013-02-11 18:49:00,
2013-02-11 12:54:00,36.3,24.8,29.97,West,259,22.4,30.6,63,0.00,,,0.00,VWS V13.01,2013-02-11 18:54:00,
2013-02-11 12:59:00,36.4,27.9,29.97,WNW,300,23.0,27.5,71,0.00,,,0.00,VWS V13.01,2013-02-11 18:59:00,
2013-02-11 13:04:00,37.3,28.8,29.97,West,270,27.5,29.5,71,0.00,,,0.00,VWS V13.01,2013-02-11 19:04:00,
2013-02-11 13:09:00,37.7,26.9,29.97,NW,325,37.5,37.5,65,0.00,,,0.00,VWS V13.01,2013-02-11 19:09:00,
2013-02-11 13:14:00,36.6,26.2,29.97,NNW,328,24.0,27.2,66,0.00,,,0.00,VWS V13.01,2013-02-11 19:14:00,
2013-02-11 13:19:00,36.7,27.0,29.97,WNW,295,24.6,31.0,68,0.00,,,0.00,VWS V13.01,2013-02-11 19:19:00,
2013-02-11 13:24:00,37.2,27.5,29.97,NW,304,26.3,29.1,68,0.00,,,0.00,VWS V13.01,2013-02-11 19:24:00,
2013-02-11 13:29:00,38.0,28.6,29.97,WNW,301,27.5,33.5,68,0.00,,,0.00,VWS V13.01,2013-02-11 19:29:00,
2013-02-11 13:34:00,37.9,26.1,29.97,WNW,284,21.8,27.5,62,0.00,,,0.00,VWS V13.01,2013-02-11 19:34:00,
2013-02-11 13:39:00,37.4,26.5,29.97,SW,236,14.4,26.2,64,0.00,,,0.00,VWS V13.01,2013-02-11 19:39:00,
2013-02-11 13:44:00,37.3,26.8,29.97,WNW,284,24.0,32.1,66,0.00,,,0.00,VWS V13.01,2013-02-11 19:44:00,
2013-02-11 13:49:00,37.7,26.7,29.97,West,260,15.6,22.4,64,0.00,,,0.00,VWS V13.01,2013-02-11 19:49:00,
2013-02-11 13:54:00,38.0,27.7,29.97,WNW,298,22.6,22.6,66,0.00,,,0.00,VWS V13.01,2013-02-11 19:54:00,
2013-02-11 13:59:00,38.5,28.9,29.98,West,276,21.3,27.8,68,0.00,,,0.00,VWS V13.01,2013-02-11 19:59:00,
2013-02-11 14:04:00,39.6,29.6,29.98,WNW,291,23.3,28.3,67,0.00,,,0.00,VWS V13.01,2013-02-11 20:04:00,
2013-02-11 14:09:00,39.8,28.3,29.98,NW,319,19.6,28.5,63,0.00,,,0.00,VWS V13.01,2013-02-11 20:09:00,
2013-02-11 14:14:00,39.4,27.9,29.98,WNW,292,19.3,27.5,63,0.00,,,0.00,VWS V13.01,2013-02-11 20:14:00,
2013-02-11 14:19:00,38.8,27.5,29.98,NW,305,30.2,35.0,63,0.00,,,0.00,VWS V13.01,2013-02-11 20:19:00,
2013-02-11 14:24:00,39.2,27.8,29.98,NW,312,23.5,26.6,63,0.00,,,0.00,VWS V13.01,2013-02-11 20:24:00,
2013-02-11 14:29:00,39.3,26.0,29.98,WNW,298,25.2,32.5,59,0.00,,,0.00,VWS V13.01,2013-02-11 20:29:00,
2013-02-11 14:34:00,39.3,25.7,29.98,WNW,294,31.1,37.5,58,0.00,,,0.00,VWS V13.01,2013-02-11 20:34:00,
2013-02-11 14:39:00,38.9,26.5,29.99,NW,309,16.0,28.0,61,0.00,,,0.00,VWS V13.01,2013-02-11 20:39:00,
2013-02-11 14:44:00,39.0,26.5,29.99,NW,309,18.5,26.6,61,0.00,,,0.00,VWS V13.01,2013-02-11 20:44:00,
2013-02-11 14:49:00,38.7,26.0,29.99,NW,305,26.0,28.9,60,0.00,,,0.00,VWS V13.01,2013-02-11 20:49:00,
2013-02-11 14:54:00,38.7,26.3,30.00,WNW,298,16.0,23.4,61,0.00,,,0.00,VWS V13.01,2013-02-11 20:54:00,
2013-02-11 14:59:00,39.3,28.7,30.00,WNW,302,28.8,28.8,66,0.00,,,0.00,VWS V13.01,2013-02-11 20:59:00,
2013-02-11 15:04:00,39.4,26.7,30.00,NW,315,16.3,22.6,60,0.00,,,0.00,VWS V13.01,2013-02-11 21:04:00,
2013-02-11 15:09:00,39.4,28.2,30.00,NW,312,18.6,24.0,64,0.00,,,0.00,VWS V13.01,2013-02-11 21:09:00,
2013-02-11 15:14:00,39.6,27.2,30.00,West,278,21.2,24.6,61,0.00,,,0.00,VWS V13.01,2013-02-11 21:14:00,
2013-02-11 15:19:00,39.0,27.1,30.00,NW,315,21.8,30.1,62,0.00,,,0.00,VWS V13.01,2013-02-11 21:19:00,
2013-02-11 15:24:00,39.2,28.6,30.00,West,278,20.9,24.1,65,0.00,,,0.00,VWS V13.01,2013-02-11 21:24:00,
2013-02-11 15:29:00,38.9,27.0,30.01,West,278,20.1,25.5,62,0.00,,,0.00,VWS V13.01,2013-02-11 21:29:00,
2013-02-11 15:34:00,39.0,28.4,30.01,WNW,287,18.1,21.5,66,0.00,,,0.00,VWS V13.01,2013-02-11 21:34:00,
2013-02-11 15:39:00,38.7,26.2,30.01,West,276,19.3,24.1,60,0.00,,,0.00,VWS V13.01,2013-02-11 21:39:00,
2013-02-11 15:44:00,38.7,27.5,30.01,West,276,29.1,29.1,64,0.00,,,0.00,VWS V13.01,2013-02-11 21:44:00,
2013-02-11 15:49:00,38.4,26.8,30.02,West,277,21.3,25.7,63,0.00,,,0.00,VWS V13.01,2013-02-11 21:49:00,
2013-02-11 15:54:00,38.1,26.4,30.01,WNW,291,19.0,27.0,62,0.00,,,0.00,VWS V13.01,2013-02-11 21:54:00,
2013-02-11 15:59:00,37.6,26.4,30.02,West,273,19.4,23.7,64,0.00,,,0.00,VWS V13.01,2013-02-11 21:59:00,
2013-02-11 16:04:00,37.9,26.8,30.02,West,274,18.0,23.4,64,0.00,,,0.00,VWS V13.01,2013-02-11 22:04:00,
2013-02-11 16:09:00,37.8,27.3,30.02,WNW,288,16.8,23.4,66,0.00,,,0.00,VWS V13.01,2013-02-11 22:09:00,
2013-02-11 16:14:00,37.6,26.8,30.02,WNW,287,20.9,22.9,65,0.00,,,0.00,VWS V13.01,2013-02-11 22:14:00,
2013-02-11 16:19:00,37.9,27.8,30.02,West,281,19.4,23.5,67,0.00,,,0.00,VWS V13.01,2013-02-11 22:19:00,
2013-02-11 16:24:00,37.9,28.0,30.02,NW,305,13.1,14.0,67,0.00,,,0.00,VWS V13.01,2013-02-11 22:24:00,
2013-02-11 16:29:00,37.6,27.5,30.02,WNW,290,18.3,18.3,67,0.00,,,0.00,VWS V13.01,2013-02-11 22:29:00,
2013-02-11 16:34:00,37.4,27.1,30.02,WNW,288,19.3,21.3,66,0.00,,,0.00,VWS V13.01,2013-02-11 22:34:00,
2013-02-11 16:39:00,37.8,27.7,30.03,WNW,298,23.2,23.2,67,0.00,,,0.00,VWS V13.01,2013-02-11 22:39:00,
2013-02-11 16:44:00,37.6,27.8,30.03,West,281,16.5,19.1,67,0.00,,,0.00,VWS V13.01,2013-02-11 22:44:00,
2013-02-11 16:49:00,37.4,27.7,30.03,WNW,298,15.2,15.2,68,0.00,,,0.00,VWS V13.01,2013-02-11 22:49:00,
2013-02-11 16:54:00,37.3,27.9,30.04,WNW,292,15.9,18.2,69,0.00,,,0.00,VWS V13.01,2013-02-11 22:54:00,
2013-02-11 16:59:00,37.2,27.6,30.04,WNW,300,16.1,18.8,68,0.00,,,0.00,VWS V13.01,2013-02-11 22:59:00,
2013-02-11 17:04:00,36.9,27.4,30.04,West,280,20.4,24.7,68,0.00,,,0.00,VWS V13.01,2013-02-11 23:04:00,
2013-02-11 17:09:00,36.4,27.3,30.05,WNW,283,19.9,20.9,69,0.00,,,0.00,VWS V13.01,2013-02-11 23:09:00,
2013-02-11 17:14:00,36.2,27.1,30.05,WNW,295,19.1,20.4,69,0.00,,,0.00,VWS V13.01,2013-02-11 23:14:00,
2013-02-11 17:19:00,36.3,26.9,30.05,WNW,285,16.8,21.7,68,0.00,,,0.00,VWS V13.01,2013-02-11 23:19:00,
2013-02-11 17:24:00,35.8,26.7,30.05,WNW,291,17.8,21.9,69,0.00,,,0.00,VWS V13.01,2013-02-11 23:24:00,
2013-02-11 17:29:00,35.5,26.6,30.05,WNW,298,14.7,23.4,70,0.00,,,0.00,VWS V13.01,2013-02-11 23:29:00,
2013-02-11 17:34:00,35.6,27.1,30.06,WNW,291,16.8,19.8,71,0.00,,,0.00,VWS V13.01,2013-02-11 23:34:00,
2013-02-11 17:39:00,35.4,27.3,30.06,WNW,301,11.5,15.5,72,0.00,,,0.00,VWS V13.01,2013-02-11 23:39:00,
2013-02-11 17:44:00,35.2,27.3,30.06,WNW,297,13.0,13.0,73,0.00,,,0.00,VWS V13.01,2013-02-11 23:44:00,
2013-02-11 17:49:00,35.0,27.5,30.06,WNW,297,17.0,21.6,74,0.00,,,0.00,VWS V13.01,2013-02-11 23:49:00,
2013-02-11 17:54:00,35.0,27.6,30.07,WNW,302,13.7,18.0,74,0.00,,,0.00,VWS V13.01,2013-02-11 23:54:00,
2013-02-11 17:59:00,35.0,28.0,30.07,WNW,297,11.1,15.1,75,0.00,,,0.00,VWS V13.01,2013-02-11 23:59:00,
2013-02-11 18:04:00,34.7,27.5,30.07,WNW,297,15.6,18.1,75,0.00,,,0.00,VWS V13.01,2013-02-12 00:04:00,
2013-02-11 18:09:00,34.7,27.6,30.07,WNW,300,15.5,16.0,75,0.00,,,0.00,VWS V13.01,2013-02-12 00:09:00,